Tracking 35334 objects as of 13-Sep-2026
HD Live streaming from Space Station
objects crossing your sky now

RESURS F-2 DEB


RESURS F-2 DEB is no longer on orbit


NORAD ID: 20120
Int'l Code: 1989-049F
Launch date: June 27, 1989
Source: Commonwealth of Independent States (former USSR) (CIS)
Launch site: PLESETSK MISSILE AND SPACE COMPLEX (PKMTR)
Decay date: 1989-07-18

Note: This is SATELLITE DEBRIS
Your satellite tracking list
Your tracking list is empty




NASA's NSSDC Master Catalog

Two Line Element Set (TLE):
1 20120U 89049  F 89198.18674556  .06868950 -30999-5 +66831-2 0  9996
2 20120 082.5507 041.8147 0081866 288.5945 070.9428 16.04558889003174
Source of the keplerian elements: AFSPC